Regional Weather Roundup
Issued by NWS Little Rock, AR

Home | Current Version | Previous Version | Graphics & Text | Print | Product List | Glossary On
Versions: 1 2 3 4 5 6 7 8 9 10 11 12 13 14 15 16 17 18 19 20 21 22 23 24 25 26 27 28 29 30 31 32
000
ASUS44 KLZK 230005
RWRLZK

WEATHER ROUNDUP FOR ARKANSAS
NATIONAL WEATHER SERVICE LITTLE ROCK AR
600 PM CST WED FEB 22 2017

NOTE: "FAIR" INDICATES FEW OR NO CLOUDS BELOW 12,000 FEET WITH NO
SIGNIFICANT WEATHER AND/OR OBSTRUCTIONS TO VISIBILITY.

ARZ001-003-010-029-230100-
NORTHWEST ARKANSAS

CITY           SKY/WX    TMP DP  RH WIND       PRES   REMARKS
FAYETTEVILLE   CLEAR     66  51  58 S9        29.74S
6HR MIN TEMP:  66; 6HR MAX TEMP:  77;

FORT SMITH     CLEAR     75  53  46 E3        29.72S
6HR MIN TEMP:  68; 6HR MAX TEMP:  79;

HARRISON       CLEAR     67  54  63 S10       29.74S
6HR MIN TEMP:  63; 6HR MAX TEMP:  76;

BENTONVILLE    CLEAR     70  43  37 S8        29.73F
6HR MIN TEMP:  68; 6HR MAX TEMP:  77;

ROGERS         CLEAR     69  45  41 S9        29.73F
6HR MIN TEMP:  69; 6HR MAX TEMP:  77;

SILOAM SPGS    CLEAR     70  45  40 S13       29.72F
6HR MIN TEMP:  70; 6HR MAX TEMP:  75;

HIGHFILL       CLEAR     70  47  43 S9        29.72F
6HR MIN TEMP:  69; 6HR MAX TEMP:  77;

SPRINGDALE     CLEAR     72  46  40 S10       29.75S
$$

ARZ004-005-016-230100-
NORTH CENTRAL ARKANSAS

CITY           SKY/WX    TMP DP  RH WIND       PRES   REMARKS
BATESVILLE     CLEAR     61  54  77 SW7       29.80S
6HR MIN TEMP:  59; 6HR MAX TEMP:  66;

FLIPPIN        CLEAR     66  52  59 SE8       29.73S
6HR MIN TEMP:  63; 6HR MAX TEMP:  75;

MTN HOME       CLEAR     63  55  75 SE9       29.75S
6HR MIN TEMP:  63; 6HR MAX TEMP:  71;

$$

ARZ040-041-230100-
WEST CENTRAL ARKANSAS

CITY           SKY/WX    TMP DP  RH WIND       PRES   REMARKS
MENA           CLEAR     70  59  68 SE5       29.79R
MOUNT IDA      CLEAR     66  56  70 S3        29.77S
6HR MIN TEMP:  66; 6HR MAX TEMP:  73;

$$

ARZ009-017-025-026-028-230100-
NORTHEAST ARKANSAS

CITY           SKY/WX    TMP DP  RH WIND       PRES   REMARKS
CORNING        FAIR      64  59  82 SW7       29.79S
JONESBORO      CLEAR     65  56  72 CALM      29.78F
6HR MIN TEMP:  63; 6HR MAX TEMP:  69;

NEWPORT        CLEAR     64  57  78 MISG        N/A
6HR MIN TEMP:  64; 6HR MAX TEMP:  71;

WALNUT RIDGE   CLEAR     63  55  77 S5        29.79R
6HR MIN TEMP:  63; 6HR MAX TEMP:  70;

BLYTHEVILLE    CLEAR     68  60  75 W6        29.79S
6HR MIN TEMP:  68; 6HR MAX TEMP:  75;

$$

ARZ022-023-033-042-044-230100-
CENTRAL ARKANSAS

CITY           SKY/WX    TMP DP  RH WIND       PRES   REMARKS
LITTLE ROCK    MOCLDY    60  57  89 SW7       29.80S
6HR MIN TEMP:  58; 6HR MAX TEMP:  62;

N LITTLE ROCK    N/A     60  57  89 S6        29.81R
6HR MIN TEMP:  58; 6HR MAX TEMP:  61;

JACKSONVILLE   CLEAR     60  57  91 CALM      29.79S
6HR MIN TEMP:  58; 6HR MAX TEMP:  62;

SEARCY         CLEAR     61  58  90 CALM      29.81F
6HR MIN TEMP:  61; 6HR MAX TEMP:  68;

HOT SPRINGS    MOCLDY    62  56  80 S6        29.81R
6HR MIN TEMP:  62; 6HR MAX TEMP:  68;

RUSSELLVILLE   CLEAR     65  57  75 E6        29.76S
6HR MIN TEMP:  60; 6HR MAX TEMP:  69;

CLINTON        CLOUDY    61  57  88 CALM      29.80R
$$

ARZ036-230100-
EAST ARKANSAS

CITY           SKY/WX    TMP DP  RH WIND       PRES   REMARKS
WEST MEMPHIS   PTCLDY    69  58  67 CALM      29.78R
6HR MIN TEMP:  68; 6HR MAX TEMP:  75;

$$

ARZ050-053-066-070-073-230100-
SOUTHWEST ARKANSAS

CITY           SKY/WX    TMP DP  RH WIND       PRES   REMARKS
ARKADELPHIA    MOCLDY    62  57  83 W5        29.82R
6HR MIN TEMP:  61; 6HR MAX TEMP:  66;

CAMDEN         CLEAR     64  54  68 CALM      29.81R
TEXARKANA      CLEAR     66  57  72 SE5       29.79F
6HR MIN TEMP:  64; 6HR MAX TEMP:  71;

EL DORADO      CLEAR     65  58  78 S3        29.80S
6HR MIN TEMP:  64; 6HR MAX TEMP:  71;

DE QUEEN       CLEAR     70  59  68 SE9       29.75S
6HR MIN TEMP:  69; 6HR MAX TEMP:  75;

$$

ARZ056-057-069-230100-
SOUTHEAST ARKANSAS

CITY           SKY/WX    TMP DP  RH WIND       PRES   REMARKS
PINE BLUFF     CLEAR     61  56  83 SW3       29.81S
6HR MIN TEMP:  60; 6HR MAX TEMP:  63;

STUTTGART      CLEAR     64  54  68 W7        29.81S
6HR MIN TEMP:  64; 6HR MAX TEMP:  72;

MONTICELLO     CLEAR     65  56  72 SE3       29.81R
6HR MIN TEMP:  62; 6HR MAX TEMP:  68;


$$






USA.gov is the U.S. government's official web portal to all federal, state and local government web resources and services.